Location: Firdgum
(53.2488°N, 5.5615°E)
Time: 21:08:56
(UTC+00:00)

NOAA 6 - Pass Details

Date: 08 December 2019
Orbit: 773 x 787 km, 98.7° (Epoch: 22 January)

Event Time Altitude Azimuth Distance (km) Brightness Sun altitude
Rises 05:57:46 0° 13° (NNE) 3,264 7.2 -13.9°
Reaches altitude 10° 06:00:06 10° 10° (N) 2,333 6.4 -13.6°
Maximum altitude 06:05:10 62° 292° (WNW) 873 4.0 -12.9°
Drops below altitude 10° 06:10:12 10° 212° (SSW) 2,320 6.4 -12.2°
Sets 06:12:31 0° 209° (SSW) 3,245 7.2 -11.9°
